Overview Statistics Trail Chart Weather Telemetry Raw packets
 

This is the latest recevied weather packets stored in our database for station/object N5ATR. If no packets are shown the sender has not sent any weather packets the latest 10 day(s).

<< 70 71 72 73 74 75 76 >>
Time Temp. Humidity Pressure Rain* Wind** Luminosity Snow
1788190567 23.33° C 42% 1024.2 hPa 0 mm - 412 W/m² -
1788190265 23.33° C 42% 1024.4 hPa 0 mm - 397 W/m² -
1788189959 22.78° C 43% 1023.9 hPa 0 mm - 380 W/m² -
1788189655 22.78° C 43% 1024 hPa 0 mm - 358 W/m² -
1788189355 21.67° C 45% 1024.1 hPa 0 mm - 321 W/m² -
1788189055 21.67° C 45% 1024 hPa 0 mm - 303 W/m² -
1788188750 21.67° C 46% 1024.1 hPa 0 mm - 273 W/m² -
1788188446 20.56° C 48% 1023.9 hPa 0 mm - 247 W/m² -
1788188140 20.56° C 48% 1024 hPa 0 mm - 175 W/m² -
1788187837 20.56° C 50% 1024.1 hPa 0 mm - 225 W/m² -
1788187532 20.56° C 51% 1024 hPa 0 mm - 195 W/m² -
1788187227 20.56° C 52% 1024 hPa 0 mm - 190 W/m² -
1788186921 20.56° C 52% 1024.4 hPa 0 mm - 206 W/m² -
1788186617 20° C 53% 1024 hPa 0 mm - 197 W/m² -
1788186314 19.44° C 54% 1024 hPa 0 mm - 96 W/m² -
1788186009 19.44° C 55% 1024.1 hPa 0 mm - 66 W/m² -
1788185708 18.89° C 56% 1024 hPa 0 mm - 62 W/m² -
1788185403 18.89° C 57% 1024 hPa 0 mm - 64 W/m² -
1788185103 18.89° C 56% 1024.1 hPa 0 mm - 68 W/m² -
1788184802 19.44° C 56% 1024.1 hPa 0 mm - 81 W/m² -
1788184500 18.89° C 57% 1024 hPa 0 mm - 84 W/m² -
1788184195 18.89° C 58% 1024 hPa 0 mm - 75 W/m² -
1788183892 18.33° C 59% 1023.8 hPa 0 mm - 63 W/m² -
1788183592 18.33° C 61% 1023.5 hPa 0 mm - 62 W/m² -
1788183292 17.78° C 62% 1023.8 hPa 0 mm - 53 W/m² -

* Rain latest hour (hover to see other rain measurements)
** Current wind speed in m/s (hover to see current wind gust speed)